PDT6124 KPHL-KILM

Flight info

Callsign PDT6124
Flight time 1h 1m
Altitude 34000
Route OOD TEBEE HAYDO TRPOD Q409 CRPLR PAACK
Aircraft E145/M-SABDFGRW/S

Departure

Time 2026-05-06 01:38
Airport Philadelphia International Airport (KPHL)

Arrival

Time 2026-05-06 02:39
Airport Wilmington International Airport (KILM)
Time Latitude Longitude Altitude Speed Heading
2026-05-06 00:49 39.88254 -75.23666 16 ft 0 kts 229°
2026-05-06 01:22 39.88260 -75.23656 15 ft 2 kts 229°
2026-05-06 01:22 39.88270 -75.23642 16 ft 2 kts 226°
2026-05-06 01:23 39.88283 -75.23635 16 ft 2 kts 166°
2026-05-06 01:23 39.88294 -75.23640 16 ft 0 kts 161°
2026-05-06 01:23 39.88296 -75.23641 16 ft 0 kts 161°
2026-05-06 01:26 39.88291 -75.23641 16 ft 0 kts 188°
2026-05-06 01:26 39.88289 -75.23648 16 ft 1 kts 262°
2026-05-06 01:27 39.88297 -75.23667 16 ft 4 kts 303°
2026-05-06 01:27 39.88321 -75.23668 16 ft 1 kts 66°
2026-05-06 01:27 39.88321 -75.23666 16 ft 0 kts 72°
2026-05-06 01:27 39.88322 -75.23659 16 ft 2 kts 81°
2026-05-06 01:28 39.88300 -75.23614 16 ft 10 kts 151°
2026-05-06 01:28 39.88229 -75.23578 16 ft 11 kts 160°
2026-05-06 01:28 39.88149 -75.23538 16 ft 13 kts 159°
2026-05-06 01:28 39.88060 -75.23495 16 ft 14 kts 160°
2026-05-06 01:29 39.87966 -75.23448 16 ft 13 kts 161°
2026-05-06 01:29 39.87869 -75.23447 16 ft 14 kts 194°
2026-05-06 01:29 39.87770 -75.23491 16 ft 15 kts 198°
2026-05-06 01:29 39.87664 -75.23538 16 ft 16 kts 199°
2026-05-06 01:30 39.87556 -75.23589 16 ft 16 kts 205°
2026-05-06 01:30 39.87466 -75.23690 16 ft 13 kts 225°
2026-05-06 01:30 39.87414 -75.23794 16 ft 14 kts 255°
2026-05-06 01:30 39.87354 -75.23874 16 ft 14 kts 159°
2026-05-06 01:31 39.87262 -75.23814 16 ft 15 kts 163°
2026-05-06 01:31 39.87156 -75.23774 17 ft 16 kts 166°
2026-05-06 01:31 39.87043 -75.23737 17 ft 17 kts 165°
2026-05-06 01:31 39.86972 -75.23705 17 ft 10 kts 136°
2026-05-06 01:32 39.86976 -75.23614 17 ft 11 kts 76°
2026-05-06 01:32 39.86997 -75.23511 17 ft 12 kts 75°
2026-05-06 01:32 39.86996 -75.23427 17 ft 2 kts 160°
2026-05-06 01:32 39.86995 -75.23426 17 ft 0 kts 167°
2026-05-06 01:36 39.86992 -75.23425 17 ft 3 kts 167°
2026-05-06 01:36 39.86932 -75.23407 17 ft 11 kts 172°
2026-05-06 01:37 39.86888 -75.23477 17 ft 12 kts 256°
2026-05-06 01:37 39.86856 -75.23651 17 ft 43 kts 255°
2026-05-06 01:37 39.86708 -75.24358 17 ft 113 kts 254°
2026-05-06 01:37 39.86484 -75.25559 76 ft 154 kts 253°
2026-05-06 01:38 39.86216 -75.26946 592 ft 165 kts 253°
2026-05-06 01:38 39.86015 -75.28433 1318 ft 169 kts 254°
2026-05-06 01:38 39.85854 -75.29894 2191 ft 164 kts 254°
2026-05-06 01:38 39.85350 -75.31069 2885 ft 159 kts 219°
2026-05-06 01:39 39.84358 -75.31731 3531 ft 171 kts 200°
2026-05-06 01:39 39.83104 -75.31969 3885 ft 201 kts 190°
2026-05-06 01:39 39.81577 -75.31969 4019 ft 236 kts 185°
2026-05-06 01:39 39.79857 -75.31845 4690 ft 251 kts 182°
2026-05-06 01:40 39.78201 -75.31693 6004 ft 239 kts 183°
2026-05-06 01:40 39.76588 -75.31542 7185 ft 231 kts 182°
2026-05-06 01:40 39.75036 -75.31395 8230 ft 226 kts 183°
2026-05-06 01:40 39.73487 -75.31248 9154 ft 223 kts 182°
2026-05-06 01:41 39.71952 -75.31103 9781 ft 227 kts 183°
2026-05-06 01:41 39.69854 -75.30907 9798 ft 265 kts 181°
2026-05-06 01:41 39.67947 -75.30723 9983 ft 285 kts 181°
2026-05-06 01:41 39.65958 -75.30531 10557 ft 290 kts 181°
2026-05-06 01:42 39.63868 -75.30351 10766 ft 306 kts 184°
2026-05-06 01:42 39.61751 -75.30644 11266 ft 306 kts 193°
2026-05-06 01:42 39.59647 -75.31024 11914 ft 308 kts 192°
2026-05-06 01:42 39.57497 -75.31413 12507 ft 310 kts 192°
2026-05-06 01:43 39.55345 -75.31803 13062 ft 312 kts 192°
2026-05-06 01:43 39.53198 -75.32192 13601 ft 314 kts 192°
2026-05-06 01:43 39.51003 -75.32588 14158 ft 317 kts 192°
2026-05-06 01:43 39.48857 -75.33151 14702 ft 317 kts 195°
2026-05-06 01:44 39.46645 -75.33414 15226 ft 320 kts 190°
2026-05-06 01:44 39.44420 -75.33786 15764 ft 322 kts 192°
2026-05-06 01:44 39.42212 -75.34180 16236 ft 324 kts 192°
2026-05-06 01:44 39.39976 -75.34582 16746 ft 326 kts 192°
2026-05-06 01:45 39.37703 -75.34992 17232 ft 327 kts 192°
2026-05-06 01:45 39.35439 -75.35400 17705 ft 329 kts 192°
2026-05-06 01:45 39.33173 -75.35809 18126 ft 332 kts 192°
2026-05-06 01:45 39.30872 -75.36224 18583 ft 334 kts 192°
2026-05-06 01:46 39.28559 -75.36640 18969 ft 337 kts 192°
2026-05-06 01:46 39.26218 -75.37060 19383 ft 339 kts 192°
2026-05-06 01:46 39.23875 -75.37483 19763 ft 342 kts 192°
2026-05-06 01:46 39.21502 -75.37908 20158 ft 344 kts 192°
2026-05-06 01:47 39.19146 -75.38491 20478 ft 345 kts 195°
2026-05-06 01:47 39.16724 -75.38854 20825 ft 350 kts 191°
2026-05-06 01:47 39.14326 -75.39226 21187 ft 352 kts 192°
2026-05-06 01:47 39.11873 -75.39642 21537 ft 354 kts 192°
2026-05-06 01:48 39.09418 -75.40072 21853 ft 358 kts 193°
2026-05-06 01:48 39.06930 -75.40511 22250 ft 358 kts 193°
2026-05-06 01:48 39.04460 -75.40950 22540 ft 362 kts 193°
2026-05-06 01:48 39.01950 -75.41396 22912 ft 364 kts 193°
2026-05-06 01:49 38.99414 -75.41846 23270 ft 366 kts 193°
2026-05-06 01:49 38.96894 -75.42294 23498 ft 371 kts 193°
2026-05-06 01:49 38.94331 -75.42749 23826 ft 373 kts 193°
2026-05-06 01:49 38.91759 -75.43205 24121 ft 375 kts 193°
2026-05-06 01:50 38.89154 -75.43667 24491 ft 376 kts 193°
2026-05-06 01:50 38.86539 -75.44132 24767 ft 379 kts 193°
2026-05-06 01:50 38.83903 -75.44598 25056 ft 382 kts 193°
2026-05-06 01:50 38.81280 -75.45061 25337 ft 384 kts 193°
2026-05-06 01:51 38.78617 -75.45532 25727 ft 384 kts 193°
2026-05-06 01:51 38.75990 -75.45996 26103 ft 383 kts 193°
2026-05-06 01:51 38.73333 -75.46465 26487 ft 383 kts 193°
2026-05-06 01:51 38.70700 -75.46929 26841 ft 383 kts 193°
2026-05-06 01:52 38.68038 -75.47398 27206 ft 383 kts 193°
2026-05-06 01:52 38.65411 -75.47862 27538 ft 384 kts 193°
2026-05-06 01:52 38.62741 -75.48331 27884 ft 384 kts 193°
2026-05-06 01:52 38.60083 -75.48798 28288 ft 383 kts 193°
2026-05-06 01:53 38.57464 -75.49258 28614 ft 384 kts 193°
2026-05-06 01:53 38.54791 -75.49728 28942 ft 385 kts 193°
2026-05-06 01:53 38.52137 -75.50193 29312 ft 384 kts 193°
2026-05-06 01:53 38.49482 -75.50658 29676 ft 384 kts 193°
2026-05-06 01:54 38.46813 -75.51126 30018 ft 384 kts 193°
2026-05-06 01:54 38.44163 -75.51589 30345 ft 385 kts 193°
2026-05-06 01:54 38.41515 -75.52053 30715 ft 384 kts 193°
2026-05-06 01:54 38.38833 -75.52522 31012 ft 385 kts 194°
2026-05-06 01:55 38.36205 -75.53025 31266 ft 385 kts 198°
2026-05-06 01:55 38.33649 -75.54020 31568 ft 378 kts 209°
2026-05-06 01:55 38.31333 -75.55542 31869 ft 372 kts 219°
2026-05-06 01:55 38.29235 -75.57414 32167 ft 371 kts 221°
2026-05-06 01:56 38.27107 -75.59293 32500 ft 371 kts 221°
2026-05-06 01:56 38.24968 -75.61165 32801 ft 371 kts 222°
2026-05-06 01:56 38.22859 -75.63005 33113 ft 371 kts 222°
2026-05-06 01:56 38.20708 -75.64879 33398 ft 372 kts 222°
2026-05-06 01:57 38.18561 -75.66747 33644 ft 374 kts 221°
2026-05-06 01:57 38.16405 -75.68620 33908 ft 375 kts 222°
2026-05-06 01:57 38.11992 -75.72454 34017 ft 391 kts 221°
2026-05-06 01:58 38.07408 -75.76427 34019 ft 404 kts 222°
2026-05-06 01:58 38.02741 -75.80466 34011 ft 409 kts 221°
2026-05-06 01:59 37.98015 -75.84549 34001 ft 414 kts 221°
2026-05-06 01:59 37.93218 -75.88687 33996 ft 419 kts 221°
2026-05-06 02:00 37.88366 -75.92866 33994 ft 423 kts 222°
2026-05-06 02:00 37.83499 -75.97051 33996 ft 426 kts 222°
2026-05-06 02:01 37.78569 -76.01284 34011 ft 428 kts 222°
2026-05-06 02:01 37.73626 -76.05521 34002 ft 430 kts 222°
2026-05-06 02:02 37.68675 -76.09757 33991 ft 432 kts 222°
2026-05-06 02:02 37.63689 -76.14017 33994 ft 434 kts 222°
2026-05-06 02:03 37.58521 -76.18041 34000 ft 442 kts 216°
2026-05-06 02:03 37.53050 -76.21674 34012 ft 443 kts 216°
2026-05-06 02:04 37.47597 -76.25300 34001 ft 442 kts 216°
2026-05-06 02:04 37.42179 -76.28898 34010 ft 436 kts 216°
2026-05-06 02:05 37.36848 -76.32433 34013 ft 430 kts 217°
2026-05-06 02:05 37.31594 -76.35911 34017 ft 425 kts 217°
2026-05-06 02:06 37.26349 -76.39378 34028 ft 421 kts 217°
2026-05-06 02:06 37.21201 -76.42773 34029 ft 418 kts 217°
2026-05-06 02:07 37.16064 -76.46159 34022 ft 415 kts 217°
2026-05-06 02:07 37.10938 -76.49530 34026 ft 412 kts 218°
2026-05-06 02:08 37.05864 -76.52863 34024 ft 410 kts 218°
2026-05-06 02:08 37.00848 -76.56153 34030 ft 408 kts 218°
2026-05-06 02:09 36.95800 -76.59458 34027 ft 406 kts 218°
2026-05-06 02:09 36.90816 -76.62717 34028 ft 404 kts 218°
2026-05-06 02:10 36.85844 -76.65964 34032 ft 402 kts 217°
2026-05-06 02:10 36.80861 -76.69212 34037 ft 400 kts 218°
2026-05-06 02:11 36.75944 -76.72413 34050 ft 399 kts 218°
2026-05-06 02:11 36.71006 -76.75623 34045 ft 399 kts 218°
2026-05-06 02:12 36.66077 -76.78822 34048 ft 398 kts 218°
2026-05-06 02:12 36.61160 -76.82010 34055 ft 400 kts 218°
2026-05-06 02:13 36.56204 -76.85218 34048 ft 403 kts 218°
2026-05-06 02:13 36.51207 -76.88447 34046 ft 405 kts 218°
2026-05-06 02:14 36.46180 -76.91691 34047 ft 407 kts 218°
2026-05-06 02:14 36.41137 -76.94940 34052 ft 409 kts 218°
2026-05-06 02:15 36.36059 -76.98207 34059 ft 410 kts 218°
2026-05-06 02:15 36.30998 -77.01459 34059 ft 412 kts 218°
2026-05-06 02:16 36.25883 -77.04740 34067 ft 413 kts 218°
2026-05-06 02:16 36.20786 -77.08004 34063 ft 414 kts 218°
2026-05-06 02:17 36.15630 -77.11302 34062 ft 416 kts 218°
2026-05-06 02:17 36.10476 -77.14594 34067 ft 417 kts 218°
2026-05-06 02:18 36.05324 -77.17879 34066 ft 418 kts 218°
2026-05-06 02:18 36.00158 -77.21169 34074 ft 419 kts 218°
2026-05-06 02:19 35.94933 -77.24491 34072 ft 420 kts 218°
2026-05-06 02:19 35.89562 -77.27507 34072 ft 427 kts 213°
2026-05-06 02:20 35.81321 -77.31717 34066 ft 427 kts 213°
2026-05-06 02:21 35.75816 -77.34525 34056 ft 425 kts 213°
2026-05-06 02:21 35.73105 -77.35906 33820 ft 425 kts 213°
2026-05-06 02:21 35.70359 -77.37305 33505 ft 426 kts 213°
2026-05-06 02:21 35.67595 -77.38712 32963 ft 432 kts 212°
2026-05-06 02:22 35.64776 -77.40149 32059 ft 444 kts 211°
2026-05-06 02:22 35.61960 -77.41575 31802 ft 438 kts 211°
2026-05-06 02:22 35.59156 -77.42997 31522 ft 433 kts 211°
2026-05-06 02:22 35.56344 -77.44424 31178 ft 431 kts 211°
2026-05-06 02:23 35.53583 -77.45823 30897 ft 427 kts 210°
2026-05-06 02:23 35.50864 -77.47200 30548 ft 424 kts 210°
2026-05-06 02:23 35.48151 -77.48573 30274 ft 421 kts 210°
2026-05-06 02:23 35.45422 -77.49953 30005 ft 416 kts 210°
2026-05-06 02:24 35.42750 -77.51303 29684 ft 414 kts 210°
2026-05-06 02:24 35.40075 -77.52654 29356 ft 412 kts 210°
2026-05-06 02:24 35.37447 -77.53980 29006 ft 411 kts 210°
2026-05-06 02:24 35.34806 -77.55312 28725 ft 407 kts 210°
2026-05-06 02:25 35.32172 -77.56639 28390 ft 406 kts 210°
2026-05-06 02:25 35.29532 -77.57969 28018 ft 405 kts 210°
2026-05-06 02:25 35.26935 -77.59275 27741 ft 402 kts 210°
2026-05-06 02:25 35.24344 -77.60578 27438 ft 400 kts 210°
2026-05-06 02:26 35.21743 -77.61884 27189 ft 397 kts 210°
2026-05-06 02:26 35.19180 -77.63174 26366 ft 410 kts 210°
2026-05-06 02:26 35.16507 -77.64517 25496 ft 420 kts 209°
2026-05-06 02:26 35.13796 -77.65874 25197 ft 415 kts 208°
2026-05-06 02:27 35.11092 -77.67228 24914 ft 411 kts 208°
2026-05-06 02:27 35.08454 -77.68549 24545 ft 409 kts 208°
2026-05-06 02:27 35.05795 -77.69879 24163 ft 408 kts 208°
2026-05-06 02:27 35.03173 -77.71191 23811 ft 406 kts 208°
2026-05-06 02:28 35.00564 -77.72494 23492 ft 403 kts 208°
2026-05-06 02:28 34.97992 -77.73779 23147 ft 401 kts 208°
2026-05-06 02:28 34.95390 -77.75075 22823 ft 396 kts 208°
2026-05-06 02:28 34.92853 -77.76341 22209 ft 392 kts 208°
2026-05-06 02:29 34.90348 -77.77590 21513 ft 389 kts 207°
2026-05-06 02:29 34.87856 -77.78831 20866 ft 385 kts 207°
2026-05-06 02:29 34.85370 -77.80068 20260 ft 379 kts 207°
2026-05-06 02:29 34.82971 -77.81261 19639 ft 373 kts 206°
2026-05-06 02:30 34.80571 -77.82455 18874 ft 369 kts 206°
2026-05-06 02:30 34.78224 -77.83621 18094 ft 363 kts 205°
2026-05-06 02:30 34.75947 -77.84750 16903 ft 352 kts 205°
2026-05-06 02:30 34.73722 -77.85856 15505 ft 348 kts 205°
2026-05-06 02:31 34.71524 -77.86946 14257 ft 337 kts 204°
2026-05-06 02:31 34.69463 -77.87965 14036 ft 299 kts 204°
2026-05-06 02:31 34.67596 -77.88892 13326 ft 288 kts 204°
2026-05-06 02:31 34.65756 -77.89803 12362 ft 287 kts 204°
2026-05-06 02:32 34.63937 -77.90704 11455 ft 283 kts 204°
2026-05-06 02:32 34.62159 -77.91582 10617 ft 276 kts 204°
2026-05-06 02:32 34.60395 -77.92454 9762 ft 272 kts 203°
2026-05-06 02:32 34.58675 -77.93305 8940 ft 267 kts 203°
2026-05-06 02:33 34.56974 -77.94145 8091 ft 263 kts 203°
2026-05-06 02:33 34.55857 -77.94697 7542 ft 260 kts 202°
2026-05-06 02:33 34.52009 -77.96596 5618 ft 251 kts 201°
2026-05-06 02:34 34.50414 -77.97382 4828 ft 247 kts 201°
2026-05-06 02:34 34.48847 -77.98154 4044 ft 244 kts 201°
2026-05-06 02:34 34.47277 -77.98928 3580 ft 236 kts 201°
2026-05-06 02:34 34.45864 -77.99774 3562 ft 221 kts 218°
2026-05-06 02:35 34.44917 -78.01157 3642 ft 201 kts 217°
2026-05-06 02:35 34.43676 -78.01682 3841 ft 186 kts 176°
2026-05-06 02:35 34.42479 -78.01148 3935 ft 187 kts 150°
2026-05-06 02:35 34.41456 -78.00102 3919 ft 194 kts 141°
2026-05-06 02:36 34.40473 -77.98941 3781 ft 198 kts 139°
2026-05-06 02:36 34.39526 -77.97738 3468 ft 197 kts 137°
2026-05-06 02:36 34.38576 -77.96538 3123 ft 195 kts 142°
2026-05-06 02:36 34.37483 -77.95595 2798 ft 187 kts 150°
2026-05-06 02:37 34.36470 -77.94837 2459 ft 159 kts 156°
2026-05-06 02:37 34.35518 -77.94272 1885 ft 151 kts 157°
2026-05-06 02:37 34.34592 -77.93845 1539 ft 133 kts 163°
2026-05-06 02:37 34.34036 -77.93610 1387 ft 128 kts 162°
2026-05-06 02:38 34.32892 -77.93090 1101 ft 132 kts 160°
2026-05-06 02:38 34.32033 -77.92682 911 ft 133 kts 161°
2026-05-06 02:38 34.31158 -77.92299 671 ft 135 kts 161°
2026-05-06 02:38 34.30281 -77.91904 452 ft 134 kts 160°
2026-05-06 02:39 34.29424 -77.91509 290 ft 130 kts 160°
2026-05-06 02:39 34.28561 -77.91113 101 ft 130 kts 159°
2026-05-06 02:39 34.27740 -77.90739 32 ft 116 kts 160°
2026-05-06 02:39 34.27204 -77.90496 31 ft 41 kts 159°
2026-05-06 02:40 34.27102 -77.90514 31 ft 12 kts 288°
2026-05-06 02:40 34.27119 -77.90596 31 ft 9 kts 281°
2026-05-06 02:40 34.27093 -77.90653 31 ft 10 kts 168°
2026-05-06 02:40 34.27016 -77.90623 31 ft 12 kts 159°
2026-05-06 02:41 34.26956 -77.90595 30 ft 14 kts 156°
2026-05-06 02:41 34.26852 -77.90548 29 ft 17 kts 160°
2026-05-06 02:41 34.26711 -77.90629 29 ft 19 kts 227°
2026-05-06 02:41 34.26622 -77.90750 28 ft 11 kts 228°
2026-05-06 02:42 34.26565 -77.90829 28 ft 13 kts 228°
2026-05-06 02:42 34.26499 -77.90922 27 ft 13 kts 242°
2026-05-06 02:42 34.26535 -77.90985 28 ft 6 kts 346°
2026-05-06 02:42 34.26557 -77.90991 28 ft 1 kts 348°
2026-05-06 02:43 34.26558 -77.90991 28 ft 0 kts 347°